Weather History for Eagle River, WI

Change the Weather History Date:

Friday, September 19, 2014

  Actual Average Record
Temperature  
Mean Temperature 56 °F -  
Max Temperature 67 °F 66 °F 84 °F (1998)
Min Temperature 44 °F 42 °F 28 °F (2012)
Degree Days  
Heating Degree Days 10    
Growing Degree Days 6 (Base 50)    
Moisture  
Dew Point 49 °F    
Average Humidity 75    
Maximum Humidity 100    
Minimum Humidity 52    
Precipitation  
Precipitation 0.00 in - - ()
Sea Level Pressure  
Sea Level Pressure 29.90 in    
Wind  
Wind Speed 8 mph (SSW)    
Max Wind Speed 18 mph    
Max Gust Speed 29 mph    
Visibility 8 miles    
Events      
Averages and records for this station are not official NWS values.
T = Trace of Precipitation, MM = Missing Value Source: NWS Daily Summary

Daily Weather History Graph

Daily Weather History Graph

Search for Another Location

Airport:

Trip Planner

Search our weather history database for the weather conditions in past years. The results will help you decide how hot, cold, wet, or windy it might be!

Date:

Astronomy

Sep. 19, 2014 Rise Set
Actual Time 6:40 AM CDT 7:00 PM CDT
Civil Twilight 6:10 AM CDT 7:30 PM CDT
Nautical Twilight 5:35 AM CDT 8:05 PM CDT
Astronomical Twilight 4:58 AM CDT 8:41 PM CDT
Moon 2:14 AM CDT (9/19) 4:38 PM CDT (9/19)
Length of Visible Light 13h 19m
Length of Day
12h 20m
Waning Crescent, 18% of the Moon is Illuminated
Sep 19
Waning Crescent
Sep 24
New
Oct 1
First Quarter
Oct 8
Full
Oct 15
Last Quarter

Hourly Weather History & Observations

Time (CDT) Temp. Windchill Dew Point Humidity Pressure Visibility Wind Dir Wind Speed Gust Speed Precip Events Conditions
12:15 AM 45.0 °F 42.6 °F 45.0 °F 100% 30.10 in 5.0 mi SSE 4.6 mph - N/A   Clear
12:35 AM 45.0 °F 43.5 °F 45.0 °F 100% 30.10 in 4.0 mi SSE 3.5 mph - N/A   Scattered Clouds
12:55 AM 44.8 °F - 44.8 °F 100% 30.09 in 3.0 mi Calm Calm - N/A   Mostly Cloudy
1:15 AM 45.9 °F 44.6 °F 45.9 °F 100% 30.09 in 3.0 mi SSW 3.5 mph - N/A   Overcast
1:55 AM 47.3 °F - 47.3 °F 100% 30.10 in 3.0 mi South 5.8 mph - N/A   Overcast
2:15 AM 47.3 °F - 47.3 °F 100% 30.10 in 2.5 mi South 5.8 mph - N/A   Overcast
2:35 AM 47.3 °F - 47.3 °F 100% 30.09 in 1.5 mi South 6.9 mph - N/A   Overcast
2:55 AM 47.3 °F - 47.3 °F 100% 30.09 in 0.8 mi South 4.6 mph - N/A   Overcast
3:15 AM 47.7 °F - 47.7 °F 100% 30.08 in 0.8 mi South 6.9 mph - N/A   Overcast
3:35 AM 48.2 °F - 48.2 °F 100% 30.08 in 1.0 mi South 6.9 mph - N/A   Overcast
3:55 AM 48.6 °F - 48.6 °F 100% 30.07 in 1.5 mi South 4.6 mph - N/A   Overcast
4:15 AM 49.1 °F - 49.1 °F 100% 30.07 in 2.0 mi South 6.9 mph - N/A   Overcast
4:35 AM 49.3 °F - 49.3 °F 100% 30.07 in 2.5 mi South 6.9 mph - N/A   Overcast
4:55 AM 50.0 °F - 50.0 °F 100% 30.07 in 2.5 mi South 6.9 mph - N/A   Overcast
5:15 AM 50.0 °F - 50.0 °F 100% 30.07 in 3.0 mi SSW 4.6 mph - N/A   Overcast
5:35 AM 50.4 °F - 50.4 °F 100% 30.06 in 4.0 mi SSW 6.9 mph - N/A   Overcast
5:55 AM 50.5 °F - 50.4 °F 99% 30.06 in 4.0 mi South 5.8 mph - N/A   Overcast
6:15 AM 50.4 °F - 50.0 °F 99% 30.06 in 5.0 mi South 6.9 mph - N/A   Overcast
6:35 AM 50.4 °F - 50.0 °F 99% 30.05 in 4.0 mi South 6.9 mph - N/A   Overcast
6:55 AM 50.0 °F - 49.5 °F 98% 30.05 in 4.0 mi South 8.1 mph - N/A   Overcast
7:15 AM 49.3 °F - 49.1 °F 99% 30.06 in 4.0 mi South 6.9 mph - N/A   Overcast
7:35 AM 49.3 °F - 49.1 °F 99% 30.04 in 4.0 mi South 8.1 mph - N/A   Overcast
7:55 AM 49.6 °F - 49.1 °F 98% 30.03 in 5.0 mi South 8.1 mph - N/A   Overcast
8:15 AM 50.9 °F - 49.6 °F 95% 30.04 in 5.0 mi South 8.1 mph - N/A   Mostly Cloudy
8:35 AM 51.4 °F - 49.6 °F 94% 30.03 in 7.0 mi SSW 6.9 mph - N/A   Mostly Cloudy
8:55 AM 52.7 °F - 49.5 °F 89% 30.00 in 10.0 mi South 8.1 mph - N/A   Scattered Clouds
9:15 AM 54.5 °F - 48.9 °F 81% 30.00 in 10.0 mi SSW 9.2 mph 19.6 mph N/A   Clear
9:35 AM 56.1 °F - 48.7 °F 76% 29.99 in 10.0 mi South 9.2 mph 18.4 mph N/A   Clear
9:55 AM 56.1 °F - 48.6 °F 76% 29.99 in 10.0 mi SSW 5.8 mph 16.1 mph N/A   Clear
10:15 AM 59.2 °F - 48.4 °F 67% 29.97 in 10.0 mi SSW 6.9 mph - N/A   Scattered Clouds
10:35 AM 59.2 °F - 47.1 °F 64% 29.97 in 10.0 mi SSW 15.0 mph 23.0 mph N/A   Scattered Clouds
10:55 AM 61.0 °F - 48.6 °F 64% 29.96 in 10.0 mi SSW 11.5 mph 18.4 mph N/A   Scattered Clouds
11:15 AM 59.5 °F - 46.2 °F 61% 29.94 in 10.0 mi SSW 15.0 mph 21.9 mph N/A   Clear
11:35 AM 60.8 °F - 46.4 °F 59% 29.94 in 10.0 mi SSW 13.8 mph 24.2 mph N/A   Clear
11:55 AM 61.0 °F - 46.0 °F 58% 29.93 in 10.0 mi SSW 9.2 mph 19.6 mph N/A   Clear
12:15 PM 62.2 °F - 46.6 °F 57% 29.91 in 10.0 mi SSW 10.4 mph 23.0 mph N/A   Clear
12:35 PM 61.9 °F - 47.1 °F 58% 29.90 in 10.0 mi South 13.8 mph 20.7 mph N/A   Clear
12:55 PM 63.5 °F - 48.0 °F 57% 29.89 in 10.0 mi SSW 12.7 mph 20.7 mph N/A   Clear
1:35 PM 65.3 °F - 47.8 °F 53% 29.83 in 10.0 mi South 16.1 mph 27.6 mph N/A   Clear
1:55 PM 64.4 °F - 48.2 °F 56% 29.80 in 10.0 mi South 11.5 mph 21.9 mph N/A   Clear
2:35 PM 66.6 °F - 48.4 °F 52% 29.82 in 10.0 mi SSW 18.4 mph 28.8 mph N/A   Clear
2:55 PM 66.0 °F - 48.6 °F 53% 29.81 in 10.0 mi SSW 13.8 mph 25.3 mph N/A   Clear
3:15 PM 67.3 °F - 49.1 °F 52% 29.79 in 10.0 mi SSW 11.5 mph 20.7 mph N/A   Clear
3:35 PM 66.6 °F - 48.7 °F 53% 29.78 in 10.0 mi South 16.1 mph 21.9 mph N/A   Scattered Clouds
3:55 PM 66.2 °F - 48.6 °F 53% 29.77 in 10.0 mi SSW 8.1 mph 20.7 mph N/A   Mostly Cloudy
4:15 PM 66.4 °F - 48.9 °F 53% 29.75 in 10.0 mi SSW 8.1 mph 18.4 mph N/A   Mostly Cloudy
4:35 PM 65.8 °F - 49.3 °F 55% 29.75 in 10.0 mi SSW 8.1 mph 19.6 mph N/A   Mostly Cloudy
4:55 PM 66.0 °F - 49.6 °F 55% 29.75 in 10.0 mi SSW 12.7 mph 19.6 mph N/A   Mostly Cloudy
5:15 PM 65.5 °F - 50.2 °F 58% 29.76 in 10.0 mi SSW 13.8 mph 25.3 mph N/A   Scattered Clouds
5:35 PM 65.3 °F - 50.4 °F 58% 29.76 in 10.0 mi SSW 8.1 mph 19.6 mph N/A   Mostly Cloudy
5:55 PM 64.6 °F - 50.9 °F 61% 29.76 in 10.0 mi SW 8.1 mph 16.1 mph N/A   Overcast
6:15 PM 64.4 °F - 51.1 °F 62% 29.76 in 10.0 mi SSW 9.2 mph 16.1 mph N/A   Overcast
6:35 PM 64.4 °F - 50.9 °F 62% 29.76 in 10.0 mi SW 6.9 mph - N/A   Overcast
6:55 PM 64.4 °F - 50.7 °F 61% 29.75 in 10.0 mi SW 11.5 mph 17.3 mph N/A   Overcast
7:15 PM 64.6 °F - 50.7 °F 61% 29.74 in 10.0 mi SSW 10.4 mph 17.3 mph N/A   Overcast
7:35 PM 64.4 °F - 50.9 °F 62% 29.74 in 10.0 mi SSW 11.5 mph 18.4 mph N/A   Overcast
7:55 PM 64.4 °F - 51.1 °F 62% 29.72 in 10.0 mi SSW 8.1 mph 18.4 mph N/A   Scattered Clouds
8:15 PM 64.4 °F - 51.3 °F 62% 29.70 in 10.0 mi SSW 10.4 mph 19.6 mph N/A   Clear
8:35 PM 64.4 °F - 51.6 °F 63% 29.72 in 10.0 mi SW 10.4 mph 17.3 mph N/A   Scattered Clouds
8:55 PM 64.8 °F - 51.8 °F 63% 29.72 in 10.0 mi SW 11.5 mph 19.6 mph N/A   Overcast
9:15 PM 64.8 °F - 51.8 °F 63% 29.73 in 10.0 mi SW 11.5 mph 19.6 mph N/A   Overcast
9:35 PM 64.8 °F - 52.0 °F 63% 29.72 in 10.0 mi SW 12.7 mph 23.0 mph N/A   Overcast
9:55 PM 64.8 °F - 52.3 °F 64% 29.72 in 10.0 mi SW 15.0 mph 18.4 mph N/A   Overcast
10:15 PM 64.8 °F - 52.5 °F 64% 29.72 in 10.0 mi SW 13.8 mph 19.6 mph N/A   Overcast
10:35 PM 64.6 °F - 52.7 °F 65% 29.72 in 10.0 mi SW 11.5 mph 18.4 mph N/A   Overcast
10:55 PM 64.6 °F - 53.1 °F 66% 29.73 in 10.0 mi SW 12.7 mph 21.9 mph N/A   Overcast
11:15 PM 64.6 °F - 53.4 °F 67% 29.72 in 10.0 mi SW 11.5 mph 20.7 mph N/A   Overcast
11:35 PM 64.4 °F - 53.6 °F 68% 29.72 in 10.0 mi SW 10.4 mph 17.3 mph N/A   Overcast
11:55 PM 64.4 °F - 54.1 °F 69% 29.71 in 10.0 mi SW 8.1 mph - N/A   Overcast